Penn Yan, NY
on Sunday, December 10, 2017

Sunday
       
Previous Day Next Day
Daily Summary
 ActualAverage (KITH)Record (KITH)
Temperature
Mean Temperature °F °C °F °C  
Max Temperature 30°F -1°C 36°F 2°C 65°F 18°C (1946)
Min Temperature 27°F -3°C 23°F -5°C -3°F -19°C (1982)
Degree Days
Heating Degree Days 36    
Moisture
Dew Point 20°F -7°C   
Average Humidity 68    
Maximum Humidity 85    
Minimum Humidity 56    
Precipitation
Precipitation 0.00 in / 0.00 cm in / cm in / cm ()
Wind
Wind Speed 9 mph / 14 km/h   
Max Wind Speed 18 mph / 29 km/h   
Max Gust Speed 26 mph / 42 km/h   
Visibility 7 miles / 11 kilometers   
Events Snow   
Averages and records for this station are not official NWS values.
Key: T is trace of precipitation, MM is missing value
Source: NWS Daily Summary
Seasonal Weather Averages
Time(EST)TemperatureDew PointHumidity Pressure Visibility Wind DirectionWind SpeedGust SpeedPrecipitationEvents Conditions
12:53 AM 28.9°F -1.7°C 15.1°F -9.4°C 56% 29.76 in / 1007.7 hPa 10.0 miles / 16.1 kilometers SW 8.1 mph / 13.0 km/h - N/A   Overcast
1:53 AM 30.0°F -1.1°C 17.1°F -8.3°C 59% 29.77 in / 1007.9 hPa 10.0 miles / 16.1 kilometers WSW 8.1 mph / 13.0 km/h - N/A   Overcast
2:35 AM 30.0°F -1.1°C 17.1°F -8.3°C 59% 29.74 in / 1007.0 hPa 10.0 miles / 16.1 kilometers WSW 8.1 mph / 13.0 km/h - N/A   Overcast
2:53 AM 30.0°F -1.1°C 17.1°F -8.3°C 59% 29.78 in / 1008.2 hPa 10.0 miles / 16.1 kilometers WSW 9.2 mph / 14.8 km/h - N/A   Overcast
3:12 AM 30.0°F -1.1°C 18.0°F -7.8°C 61% 29.74 in / 1007.0 hPa 9.0 miles / 14.5 kilometers WSW 11.5 mph / 18.5 km/h - N/A   Overcast
3:35 AM 30.0°F -1.1°C 18.0°F -7.8°C 61% 29.74 in / 1007.0 hPa 10.0 miles / 16.1 kilometers WSW 11.5 mph / 18.5 km/h - N/A   Overcast
3:42 AM 30.0°F -1.1°C 18.0°F -7.8°C 61% 29.74 in / 1007.0 hPa 10.0 miles / 16.1 kilometers WSW 9.2 mph / 14.8 km/h - N/A   Overcast
3:53 AM 30.0°F -1.1°C 18.0°F -7.8°C 61% 29.78 in / 1008.2 hPa 10.0 miles / 16.1 kilometers WSW 10.4 mph / 16.7 km/h - N/A   Overcast
4:40 AM 30.0°F -1.1°C 18.0°F -7.8°C 61% 29.75 in / 1007.3 hPa 9.0 miles / 14.5 kilometers WSW 10.4 mph / 16.7 km/h - N/A   Overcast
4:53 AM 30.0°F -1.1°C 19.0°F -7.2°C 64% 29.78 in / 1008.5 hPa 10.0 miles / 16.1 kilometers WSW 9.2 mph / 14.8 km/h - N/A   Overcast
5:53 AM 30.0°F -1.1°C 19.0°F -7.2°C 64% 29.81 in / 1009.3 hPa 10.0 miles / 16.1 kilometers WSW 10.4 mph / 16.7 km/h - N/A   Overcast
6:53 AM 30.0°F -1.1°C 19.9°F -6.7°C 66% 29.82 in / 1009.7 hPa 10.0 miles / 16.1 kilometers WSW 8.1 mph / 13.0 km/h - N/A   Overcast
7:34 AM 30.0°F -1.1°C 21.0°F -6.1°C 69% 29.80 in / 1009.0 hPa 10.0 miles / 16.1 kilometers WSW 10.4 mph / 16.7 km/h - N/A   Overcast
7:53 AM 30.0°F -1.1°C 21.0°F -6.1°C 69% 29.85 in / 1010.7 hPa 6.0 miles / 9.7 kilometers West 11.5 mph / 18.5 km/h - 0.00 in / 0.0 cm Snow Light Snow
8:00 AM 30.0°F -1.1°C 21.0°F -6.1°C 69% 29.81 in / 1009.4 hPa 2.0 miles / 3.2 kilometers WNW 8.1 mph / 13.0 km/h - 0.00 in / 0.0 cm Snow Light Snow
8:07 AM 30.0°F -1.1°C 21.0°F -6.1°C 69% 29.82 in / 1009.7 hPa 1.5 miles / 2.4 kilometers West 6.9 mph / 11.1 km/h - 0.00 in / 0.0 cm Snow Light Snow
8:30 AM 28.9°F -1.7°C 21.9°F -5.6°C 75% 29.82 in / 1009.7 hPa 2.5 miles / 4.0 kilometers West 4.6 mph / 7.4 km/h - 0.00 in / 0.0 cm Snow Light Snow
8:38 AM 28.9°F -1.7°C 21.9°F -5.6°C 75% 29.82 in / 1009.7 hPa 5.0 miles / 8.0 kilometers West 8.1 mph / 13.0 km/h - 0.00 in / 0.0 cm   Haze
8:46 AM 30.0°F -1.1°C 21.9°F -5.6°C 72% 29.83 in / 1010.0 hPa 8.0 miles / 12.9 kilometers WSW 8.1 mph / 13.0 km/h - 0.00 in / 0.0 cm   Mostly Cloudy
8:53 AM 30.0°F -1.1°C 21.9°F -5.6°C 72% 29.86 in / 1011.2 hPa 9.0 miles / 14.5 kilometers WSW 10.4 mph / 16.7 km/h - 0.00 in / 0.0 cm   Mostly Cloudy
9:16 AM 30.0°F -1.1°C 21.0°F -6.1°C 69% 29.83 in / 1010.0 hPa 9.0 miles / 14.5 kilometers WSW 10.4 mph / 16.7 km/h - N/A   Mostly Cloudy
9:30 AM 30.0°F -1.1°C 19.0°F -7.2°C 64% 29.83 in / 1010.0 hPa 9.0 miles / 14.5 kilometers West 12.7 mph / 20.4 km/h - N/A   Overcast
9:53 AM 30.0°F -1.1°C 19.0°F -7.2°C 64% 29.88 in / 1011.7 hPa 7.0 miles / 11.3 kilometers West 5.8 mph / 9.3 km/h - N/A   Overcast
10:06 AM 30.0°F -1.1°C 19.9°F -6.7°C 66% 29.85 in / 1010.7 hPa 2.0 miles / 3.2 kilometers West 11.5 mph / 18.5 km/h - 0.00 in / 0.0 cm Snow Light Snow
10:21 AM 28.9°F -1.7°C 19.9°F -6.7°C 69% 29.85 in / 1010.7 hPa 3.0 miles / 4.8 kilometers West 6.9 mph / 11.1 km/h - 0.00 in / 0.0 cm Snow Light Snow
10:53 AM 30.0°F -1.1°C 19.0°F -7.2°C 64% 29.88 in / 1011.8 hPa 6.0 miles / 9.7 kilometers West 11.5 mph / 18.5 km/h - 0.00 in / 0.0 cm Snow Light Snow
11:53 AM 30.9°F -0.6°C 17.1°F -8.3°C 57% 29.87 in / 1011.4 hPa 10.0 miles / 16.1 kilometers WSW 16.1 mph / 25.9 km/h - 0.00 in / 0.0 cm   Overcast
12:53 PM 30.0°F -1.1°C 19.0°F -7.2°C 64% 29.86 in / 1011.1 hPa 10.0 miles / 16.1 kilometers WNW 6.9 mph / 11.1 km/h - 0.00 in / 0.0 cm   Overcast
1:12 PM 28.9°F -1.7°C 19.9°F -6.7°C 69% 29.83 in / 1010.0 hPa 2.5 miles / 4.0 kilometers WNW 6.9 mph / 11.1 km/h - 0.00 in / 0.0 cm Snow Light Snow
1:28 PM 28.0°F -2.2°C 19.9°F -6.7°C 72% 29.83 in / 1010.0 hPa 1.8 miles / 2.8 kilometers NW 5.8 mph / 9.3 km/h - 0.00 in / 0.0 cm Snow Light Snow
1:53 PM 28.0°F -2.2°C 21.0°F -6.1°C 75% 29.86 in / 1011.2 hPa 1.5 miles / 2.4 kilometers NW 5.8 mph / 9.3 km/h - 0.00 in / 0.0 cm Snow Light Snow
2:18 PM 28.0°F -2.2°C 21.9°F -5.6°C 78% 29.82 in / 1009.7 hPa 2.0 miles / 3.2 kilometers Calm Calm - 0.00 in / 0.0 cm Snow Light Snow
2:28 PM 28.0°F -2.2°C 21.9°F -5.6°C 78% 29.82 in / 1009.7 hPa 2.5 miles / 4.0 kilometers Calm Calm - 0.00 in / 0.0 cm Snow Light Snow
2:33 PM 28.0°F -2.2°C 21.9°F -5.6°C 78% 29.82 in / 1009.7 hPa 1.8 miles / 2.8 kilometers Calm Calm - 0.00 in / 0.0 cm Snow Light Snow
2:53 PM 28.0°F -2.2°C 21.9°F -5.6°C 78% 29.86 in / 1011.2 hPa 1.0 miles / 1.6 kilometers Calm Calm - 0.00 in / 0.0 cm Snow Light Snow
3:07 PM 28.0°F -2.2°C 23.0°F -5.0°C 81% 29.83 in / 1010.0 hPa 0.8 miles / 1.2 kilometers Calm Calm - 0.00 in / 0.0 cm Snow Light Snow
3:29 PM 27.0°F -2.8°C 23.0°F -5.0°C 85% 29.83 in / 1010.0 hPa 1.5 miles / 2.4 kilometers Calm Calm - 0.00 in / 0.0 cm Snow Light Snow
3:33 PM 27.0°F -2.8°C 23.0°F -5.0°C 85% 29.83 in / 1010.0 hPa 2.0 miles / 3.2 kilometers ENE 3.5 mph / 5.6 km/h - 0.00 in / 0.0 cm Snow Light Snow
3:36 PM 27.0°F -2.8°C 23.0°F -5.0°C 85% 29.83 in / 1010.0 hPa 3.0 miles / 4.8 kilometers East 3.5 mph / 5.6 km/h - 0.00 in / 0.0 cm Snow Light Snow
3:53 PM 28.0°F -2.2°C 23.0°F -5.0°C 81% 29.87 in / 1011.3 hPa 9.0 miles / 14.5 kilometers Calm Calm - 0.00 in / 0.0 cm   Overcast
4:53 PM 30.9°F -0.6°C 18.0°F -7.8°C 59% 29.87 in / 1011.4 hPa 10.0 miles / 16.1 kilometers SW 17.3 mph / 27.8 km/h 23.0 mph / 37.0 km/h N/A   Overcast
5:53 PM 30.9°F -0.6°C 18.0°F -7.8°C 59% 29.88 in / 1011.9 hPa 10.0 miles / 16.1 kilometers WSW 18.4 mph / 29.6 km/h 26.5 mph / 42.6 km/h N/A   Overcast
6:53 PM 30.9°F -0.6°C 18.0°F -7.8°C 59% 29.89 in / 1012.2 hPa 10.0 miles / 16.1 kilometers SW 15.0 mph / 24.1 km/h - N/A   Overcast
7:53 PM 30.9°F -0.6°C 18.0°F -7.8°C 59% 29.89 in / 1012.2 hPa 10.0 miles / 16.1 kilometers SW 13.8 mph / 22.2 km/h 21.9 mph / 35.2 km/h N/A   Overcast
8:53 PM 30.0°F -1.1°C 18.0°F -7.8°C 61% 29.90 in / 1012.5 hPa 10.0 miles / 16.1 kilometers WSW 15.0 mph / 24.1 km/h - N/A   Overcast
9:53 PM 30.0°F -1.1°C 18.0°F -7.8°C 61% 29.91 in / 1012.7 hPa 10.0 miles / 16.1 kilometers SW 15.0 mph / 24.1 km/h 20.7 mph / 33.3 km/h N/A   Overcast
10:53 PM 30.0°F -1.1°C 18.0°F -7.8°C 61% 29.91 in / 1012.8 hPa 10.0 miles / 16.1 kilometers SW 13.8 mph / 22.2 km/h - N/A   Overcast
11:53 PM 30.0°F -1.1°C 17.1°F -8.3°C 59% 29.91 in / 1012.9 hPa 10.0 miles / 16.1 kilometers SW 8.1 mph / 13.0 km/h - N/A   Overcast